TimeAWST,TemperatureF,Dew PointF,Humidity,Sea Level PressureIn,VisibilityMPH,Wind Direction,Wind SpeedMPH,Gust SpeedMPH,PrecipitationIn,Events,Conditions,WindDirDegrees,DateUTC
12:00 AM,63,45,40,29.99,19,North,3.5,,,,Partly Cloudy,0,2013-04-02 16:00:00
12:00 AM,62.6,44.6,52,29.98,-9999.0,North,3.5,-,N/A,,Clear,350,2013-04-02 16:00:00
12:17 AM,71.6,39.2,31,29.98,-9999.0,East,13.8,-,N/A,,Clear,90,2013-04-02 16:17:00
12:30 AM,73.4,37.4,27,29.98,-9999.0,East,15.0,-,N/A,,Clear,90,2013-04-02 16:30:00
1:00 AM,73.4,37.4,27,29.98,-9999.0,East,11.5,-,N/A,,Clear,80,2013-04-02 17:00:00
1:30 AM,71.6,39.2,31,29.98,-9999.0,NE,11.5,-,N/A,,Clear,50,2013-04-02 17:30:00
2:00 AM,71,40,21,29.98,,ENE,17.3,,,,,70,2013-04-02 18:00:00
2:00 AM,71.6,39.2,31,29.98,-9999.0,ENE,17.3,-,N/A,,Clear,70,2013-04-02 18:00:00
2:30 AM,69.8,41.0,35,29.98,6.2,ENE,16.1,-,N/A,,Partly Cloudy,60,2013-04-02 18:30:00
3:00 AM,70,41,23,29.97,19,ENE,17.3,,,,Partly Cloudy,70,2013-04-02 19:00:00
3:00 AM,69.8,41.0,35,29.95,6.2,ENE,17.3,-,N/A,,Partly Cloudy,70,2013-04-02 19:00:00
3:30 AM,69.8,41.0,35,29.95,-9999.0,ENE,18.4,-,N/A,,Clear,60,2013-04-02 19:30:00
4:00 AM,69.8,41.0,35,29.95,6.2,ENE,17.3,-,N/A,,Partly Cloudy,60,2013-04-02 20:00:00
4:30 AM,69.8,42.8,38,29.98,6.2,NE,13.8,-,N/A,,Partly Cloudy,50,2013-04-02 20:30:00
5:00 AM,69,43,27,29.98,,ENE,16.1,,,,,60,2013-04-02 21:00:00
5:00 AM,68.0,42.8,40,29.98,-9999.0,ENE,16.1,-,N/A,,Clear,60,2013-04-02 21:00:00
5:30 AM,68.0,42.8,40,29.98,-9999.0,NE,18.4,-,N/A,,Clear,50,2013-04-02 21:30:00
6:00 AM,69,43,27,29.99,19,ENE,19.6,,,,Partly Cloudy,60,2013-04-02 22:00:00
6:00 AM,68.0,42.8,40,29.98,-9999.0,ENE,19.6,-,N/A,,Clear,60,2013-04-02 22:00:00
6:30 AM,69.8,42.8,38,29.98,-9999.0,ENE,20.7,-,N/A,,Clear,70,2013-04-02 22:30:00
7:00 AM,69.8,44.6,40,29.98,-9999.0,ENE,18.4,-,N/A,,Clear,70,2013-04-02 23:00:00
7:30 AM,71.6,44.6,38,29.98,-9999.0,ENE,18.4,-,N/A,,Clear,60,2013-04-02 23:30:00
8:00 AM,72,45,27,30.00,,ENE,18.4,,,,,60,2013-04-03 00:00:00
8:00 AM,71.6,44.6,38,30.01,-9999.0,ENE,18.4,-,N/A,,Clear,60,2013-04-03 00:00:00
8:30 AM,73.4,44.6,36,30.01,-9999.0,NE,12.7,-,N/A,,Clear,50,2013-04-03 00:30:00
9:00 AM,78,47,23,30.01,19,ENE,12.7,,,,Partly Cloudy,70,2013-04-03 01:00:00
9:00 AM,77.0,46.4,34,30.01,-9999.0,ENE,12.7,-,N/A,,Clear,70,2013-04-03 01:00:00
9:30 AM,80.6,46.4,30,29.98,-9999.0,NE,11.5,-,N/A,,Clear,50,2013-04-03 01:30:00
10:00 AM,82.4,46.4,28,29.98,-9999.0,ENE,13.8,-,N/A,,Clear,60,2013-04-03 02:00:00
10:30 AM,84.2,48.2,29,29.98,-9999.0,ENE,11.5,-,N/A,,Clear,70,2013-04-03 02:30:00
11:00 AM,87,50,18,29.98,,NE,12.7,,,,,40,2013-04-03 03:00:00
11:00 AM,87.8,50.0,27,29.98,-9999.0,NE,12.7,-,N/A,,Clear,40,2013-04-03 03:00:00
11:30 AM,87.8,50.0,27,29.95,-9999.0,NE,12.7,-,N/A,,Clear,50,2013-04-03 03:30:00
12:00 PM,89,52,18,29.96,19,NNE,11.5,,,,Partly Cloudy,30,2013-04-03 04:00:00
12:00 PM,89.6,51.8,27,29.95,-9999.0,NNE,10.4,-,N/A,,Clear,20,2013-04-03 04:00:00
12:30 PM,89.6,50.0,26,29.95,-9999.0,NNE,9.2,-,N/A,,Clear,30,2013-04-03 04:30:00
1:00 PM,89.6,50.0,26,29.92,-9999.0,North,9.2,-,N/A,,Clear,10,2013-04-03 05:00:00
1:30 PM,91.4,51.8,26,29.92,-9999.0,NNE,8.1,-,N/A,,Clear,20,2013-04-03 05:30:00
2:00 PM,92,51,16,29.92,,NNE,6.9,,,,,20,2013-04-03 06:00:00
2:00 PM,91.4,51.8,26,29.92,-9999.0,NNE,6.9,-,N/A,,Clear,20,2013-04-03 06:00:00
2:30 PM,93.2,50.0,23,29.89,-9999.0,ENE,11.5,-,N/A,,Clear,60,2013-04-03 06:30:00
3:00 PM,93,53,16,29.91,19,NNE,8.1,,,,Partly Cloudy,30,2013-04-03 07:00:00
3:00 PM,93.2,51.8,24,29.89,-9999.0,ENE,9.2,20.7,N/A,,Clear,60,2013-04-03 07:00:00
3:30 PM,93.2,51.8,24,29.89,-9999.0,ENE,6.9,-,N/A,,Clear,70,2013-04-03 07:30:00
4:00 PM,93.2,51.8,24,29.89,-9999.0,West,3.5,-,N/A,,Clear,270,2013-04-03 08:00:00
4:30 PM,93.2,51.8,24,29.89,-9999.0,NW,6.9,-,N/A,,Clear,310,2013-04-03 08:30:00
5:00 PM,87,53,22,29.91,,West,12.7,,,,,260,2013-04-03 09:00:00
5:00 PM,87.8,53.6,31,29.92,-9999.0,West,12.7,-,N/A,,Clear,260,2013-04-03 09:00:00
5:30 PM,84.2,53.6,35,29.92,-9999.0,West,11.5,-,N/A,,Clear,260,2013-04-03 09:30:00
6:00 PM,84,54,25,29.94,19,SW,10.4,,,,Partly Cloudy,230,2013-04-03 10:00:00
6:00 PM,84.2,53.6,35,29.92,-9999.0,SW,10.4,-,N/A,,Clear,230,2013-04-03 10:00:00
6:30 PM,82.4,53.6,37,29.92,-9999.0,WSW,8.1,-,N/A,,Clear,240,2013-04-03 10:30:00
7:00 PM,80.6,55.4,42,29.95,-9999.0,SW,8.1,-,N/A,,Clear,230,2013-04-03 11:00:00
7:30 PM,78.8,57.2,47,29.95,-9999.0,SW,8.1,-,N/A,,Clear,230,2013-04-03 11:30:00
8:00 PM,77,59,44,29.97,,SW,6.9,,,,,230,2013-04-03 12:00:00
8:00 PM,77.0,59.0,54,29.95,-9999.0,SW,6.9,-,N/A,,Clear,230,2013-04-03 12:00:00
8:30 PM,73.4,59.0,61,29.98,-9999.0,SSW,6.9,-,N/A,,Clear,210,2013-04-03 12:30:00
9:00 PM,76,55,38,29.98,19,South,8.1,,,,Partly Cloudy,170,2013-04-03 13:00:00
9:00 PM,75.2,55.4,50,29.98,-9999.0,South,8.1,-,N/A,,Clear,170,2013-04-03 13:00:00
9:30 PM,75.2,55.4,50,29.98,-9999.0,South,5.8,-,N/A,,Clear,180,2013-04-03 13:30:00
10:00 PM,73.4,57.2,57,29.98,-9999.0,South,6.9,-,N/A,,Clear,170,2013-04-03 14:00:00
10:30 PM,71.6,55.4,57,29.98,-9999.0,South,6.9,-,N/A,,Clear,170,2013-04-03 14:30:00
11:00 PM,69,55,51,29.97,,SSW,8.1,,,,,200,2013-04-03 15:00:00
11:00 PM,68.0,55.4,64,29.98,-9999.0,SSW,8.1,-,N/A,,Clear,200,2013-04-03 15:00:00
11:30 PM,69.8,53.6,56,29.95,-9999.0,SSW,6.9,-,N/A,,Clear,200,2013-04-03 15:30:00